When you browse on this site, cookies collect data to enhance your experience and personalize the content and advertising you see.
Visit our Privacy Policy to learn more. By continuing to use the site, you agree to this use of cookies and data.
  • In Netherlands
  • List of Countries
  • For 7 days
  • Water Temperature
  • Satellite Maps
  • Weather Map
  • Weather Widgets
  • user-avatar
    Login

    Hourly Weather Strizhi

    Today, 11 December, Tuesday

    Time Temperature Precipitation Wind Pressure Humidity
    00:00 +1°C° 0.1 mm 6 mps 754 mmHg 92%
    01:00 -1°C° 0 mm 6 mps 754 mmHg 93%
    02:00 0°C° 0 mm 5 mps 753 mmHg 93%
    03:00 0°C° 0 mm 3 mps 753 mmHg 95%
    04:00 -1°C° 0 mm 4 mps 753 mmHg 95%
    05:00 -1°C° 0 mm 5 mps 753 mmHg 95%
    06:00 -1°C° 0 mm 5 mps 753 mmHg 94%
    07:00 -1°C° 0 mm 5 mps 753 mmHg 94%
    08:00 -1°C° 0 mm 5 mps 753 mmHg 94%
    09:00 0°C° 0 mm 5 mps 753 mmHg 93%
    10:00 0°C° 0 mm 5 mps 752 mmHg 92%
    11:00 +1°C° 0 mm 6 mps 752 mmHg 92%
    12:00 +1°C° 0 mm 6 mps 752 mmHg 91%
    13:00 +1°C° 0 mm 6 mps 751 mmHg 91%
    14:00 +2°C° 0 mm 6 mps 751 mmHg 91%
    15:00 +1°C° 0 mm 5 mps 751 mmHg 92%
    16:00 +1°C° 0.1 mm 5 mps 751 mmHg 92%
    17:00 +1°C° 0.1 mm 4 mps 751 mmHg 93%
    18:00 +1°C° 0.1 mm 4 mps 751 mmHg 94%
    19:00 +1°C° 0.6 mm 4 mps 751 mmHg 94%
    20:00 +1°C° 0.6 mm 5 mps 751 mmHg 95%
    21:00 +1°C° 0.6 mm 5 mps 752 mmHg 95%
    22:00 +1°C° 0.4 mm 5 mps 751 mmHg 95%
    23:00 +1°C° 0.4 mm 5 mps 751 mmHg 95%

    Tomorrow, 12 December, Wednesday

    Time Temperature Precipitation Wind Pressure Humidity
    00:00 +2°C° 0.4 mm 5 mps 751 mmHg 95%
    01:00 +2°C° 0 mm 5 mps 751 mmHg 95%
    02:00 +2°C° 0 mm 5 mps 751 mmHg 95%
    03:00 +2°C° 0 mm 5 mps 751 mmHg 95%
    04:00 +2°C° 0 mm 5 mps 751 mmHg 93%
    05:00 +2°C° 0 mm 5 mps 751 mmHg 92%
    06:00 +3°C° 0 mm 6 mps 751 mmHg 90%
    07:00 +3°C° 0 mm 5 mps 751 mmHg 89%
    08:00 +3°C° 0 mm 5 mps 751 mmHg 88%
    09:00 +3°C° 0 mm 5 mps 751 mmHg 87%
    10:00 +5°C° 0 mm 5 mps 751 mmHg 82%
    11:00 +5°C° 0 mm 6 mps 751 mmHg 77%
    12:00 +7°C° 0 mm 6 mps 751 mmHg 71%
    13:00 +5°C° 0 mm 6 mps 751 mmHg 71%
    14:00 +6°C° 0 mm 5 mps 752 mmHg 71%
    15:00 +6°C° 0 mm 5 mps 752 mmHg 71%
    16:00 +5°C° 0 mm 4 mps 752 mmHg 75%
    17:00 +4°C° 0 mm 4 mps 752 mmHg 78%
    18:00 +3°C° 0 mm 3 mps 753 mmHg 81%
    19:00 +3°C° 0 mm 3 mps 753 mmHg 82%
    20:00 +3°C° 0 mm 3 mps 753 mmHg 83%
    21:00 +3°C° 0 mm 3 mps 754 mmHg 83%
    22:00 +2°C° 0 mm 3 mps 754 mmHg 84%
    23:00 +2°C° 0 mm 3 mps 754 mmHg 85%

    Day after tomorrow, 13 December, Thursday

    Time Temperature Precipitation Wind Pressure Humidity
    00:00 +2°C° 0 mm 3 mps 755 mmHg 85%
    01:00 +2°C° 0 mm 3 mps 755 mmHg 86%
    02:00 +2°C° 0 mm 3 mps 755 mmHg 87%
    03:00 +2°C° 0 mm 3 mps 756 mmHg 88%
    04:00 +1°C° 0 mm 3 mps 756 mmHg 89%
    05:00 +1°C° 0 mm 3 mps 756 mmHg 90%
    06:00 +1°C° 0 mm 3 mps 756 mmHg 91%
    07:00 +1°C° 0 mm 2 mps 756 mmHg 91%
    08:00 +1°C° 0 mm 2 mps 757 mmHg 91%
    09:00 +1°C° 0 mm 2 mps 757 mmHg 91%
    10:00 +1°C° 0 mm 3 mps 758 mmHg 84%
    11:00 +2°C° 0 mm 3 mps 758 mmHg 78%
    12:00 +3°C° 0 mm 4 mps 758 mmHg 72%
    13:00 +3°C° 0 mm 3 mps 759 mmHg 71%
    14:00 +3°C° 0 mm 3 mps 759 mmHg 71%
    15:00 +3°C° 0 mm 3 mps 759 mmHg 71%
    16:00 +3°C° 0 mm 2 mps 759 mmHg 74%
    17:00 +2°C° 0 mm 2 mps 760 mmHg 78%
    18:00 +2°C° 0 mm 2 mps 760 mmHg 82%
    19:00 +1°C° 0 mm 2 mps 760 mmHg 83%
    20:00 +1°C° 0 mm 2 mps 761 mmHg 84%
    21:00 +1°C° 0 mm 2 mps 761 mmHg 85%
    22:00 +1°C° 0 mm 2 mps 761 mmHg 85%
    23:00 +1°C° 0 mm 2 mps 761 mmHg 85%

    14 December, Friday

    Time Temperature Precipitation Wind Pressure Humidity
    00:00 +2°C° 0 mm 1 mps 762 mmHg 85%
    01:00 +1°C° 0 mm 1 mps 762 mmHg 86%
    02:00 +1°C° 0 mm 1 mps 762 mmHg 86%
    03:00 +1°C° 0 mm 1 mps 762 mmHg 87%
    04:00 +1°C° 0 mm 1 mps 762 mmHg 87%
    05:00 +1°C° 0 mm 1 mps 762 mmHg 87%
    06:00 +1°C° 0 mm 1 mps 762 mmHg 87%
    07:00 +1°C° 0 mm 1 mps 762 mmHg 85%
    08:00 +1°C° 0 mm 1 mps 763 mmHg 84%
    09:00 +2°C° 0 mm 1 mps 763 mmHg 83%
    10:00 +3°C° 0 mm 1 mps 763 mmHg 78%
    11:00 +4°C° 0 mm 1 mps 763 mmHg 72%
    12:00 +5°C° 0 mm 1 mps 763 mmHg 67%
    13:00 +5°C° 0 mm 1 mps 763 mmHg 69%
    14:00 +5°C° 0 mm 1 mps 763 mmHg 70%
    15:00 +4°C° 0 mm 0 mps 763 mmHg 72%
    16:00 +3°C° 0 mm 0 mps 763 mmHg 75%
    17:00 +2°C° 0 mm 0 mps 763 mmHg 79%
    18:00 +1°C° 0 mm 0 mps 763 mmHg 82%
    19:00 +1°C° 0 mm 0 mps 763 mmHg 83%
    20:00 +1°C° 0 mm 0 mps 763 mmHg 84%
    21:00 +1°C° 0 mm 0 mps 763 mmHg 85%
    22:00 +1°C° 0 mm 0 mps 764 mmHg 85%
    23:00 +1°C° 0 mm 0 mps 764 mmHg 86%

    15 December, Saturday

    Time Temperature Precipitation Wind Pressure Humidity
    00:00 0°C° 0 mm 0 mps 764 mmHg 87%
    01:00 +1°C° 0 mm 1 mps 764 mmHg 87%
    02:00 +1°C° 0 mm 1 mps 764 mmHg 88%
    03:00 +1°C° 0 mm 1 mps 764 mmHg 88%
    04:00 +1°C° 0 mm 1 mps 764 mmHg 89%
    05:00 +1°C° 0 mm 1 mps 765 mmHg 89%
    06:00 +1°C° 0 mm 1 mps 765 mmHg 89%
    07:00 +1°C° 0 mm 1 mps 765 mmHg 89%
    08:00 +1°C° 0 mm 1 mps 765 mmHg 88%
    09:00 +1°C° 0 mm 1 mps 766 mmHg 87%
    10:00 +2°C° 0 mm 1 mps 766 mmHg 83%
    11:00 +3°C° 0 mm 1 mps 766 mmHg 78%
    12:00 +4°C° 0 mm 1 mps 766 mmHg 73%
    13:00 +4°C° 0 mm 1 mps 766 mmHg 73%
    14:00 +4°C° 0 mm 1 mps 766 mmHg 74%
    15:00 +4°C° 0 mm 1 mps 766 mmHg 75%
    16:00 +3°C° 0 mm 1 mps 767 mmHg 78%
    17:00 +2°C° 0 mm 1 mps 767 mmHg 82%
    18:00 +1°C° 0 mm 1 mps 767 mmHg 86%
    19:00 +1°C° 0 mm 1 mps 767 mmHg 87%
    20:00 +1°C° 0 mm 1 mps 767 mmHg 87%
    21:00 0°C° 0 mm 1 mps 768 mmHg 88%
    22:00 0°C° 0 mm 1 mps 768 mmHg 88%
    23:00 0°C° 0 mm 1 mps 768 mmHg 89%

    16 December, Sunday

    Time Temperature Precipitation Wind Pressure Humidity
    00:00 -2°C° 0 mm 2 mps 768 mmHg 89%
    01:00 -2°C° 0 mm 2 mps 768 mmHg 89%
    02:00 -3°C° 0 mm 2 mps 768 mmHg 90%
    03:00 -3°C° 0 mm 2 mps 768 mmHg 90%
    04:00 -3°C° 0 mm 2 mps 768 mmHg 90%
    05:00 -3°C° 0 mm 2 mps 768 mmHg 90%
    06:00 -3°C° 0 mm 2 mps 768 mmHg 90%
    07:00 -3°C° 0 mm 2 mps 769 mmHg 89%
    08:00 -3°C° 0 mm 2 mps 769 mmHg 88%
    09:00 -3°C° 0 mm 2 mps 769 mmHg 86%
    10:00 -2°C° 0 mm 3 mps 769 mmHg 82%
    11:00 -1°C° 0 mm 3 mps 769 mmHg 77%
    12:00 0°C° 0 mm 3 mps 769 mmHg 72%
    13:00 0°C° 0 mm 3 mps 769 mmHg 72%
    14:00 0°C° 0 mm 3 mps 768 mmHg 73%
    15:00 0°C° 0 mm 3 mps 768 mmHg 73%
    16:00 -1°C° 0 mm 3 mps 768 mmHg 75%
    17:00 -2°C° 0 mm 3 mps 768 mmHg 78%
    18:00 -2°C° 0 mm 3 mps 769 mmHg 81%
    19:00 -2°C° 0 mm 3 mps 769 mmHg 81%
    20:00 -2°C° 0 mm 3 mps 769 mmHg 81%
    21:00 -2°C° 0 mm 3 mps 769 mmHg 81%
    22:00 -2°C° 0 mm 3 mps 769 mmHg 81%
    23:00 -2°C° 0 mm 3 mps 768 mmHg 81%
    Show more